Regional Weather Roundup
Issued by NWS Cleveland, OH

Home | Current Version | Previous Version | Graphics & Text | Print | Product List | Glossary On
Versions: 1 2 3 4 5 6 7 8 9 10 11 12 13 14 15 16 17 18 19 20 21 22 23 24 25 26 27 28 29 30 31 32 33 34 35 36 37 38 39 40 41 42 43 44 45 46 47 48 49 50
000
ASUS41 KCLE 262010
RWRCLE
OHIO REGIONAL WEATHER ROUNDUP
NATIONAL WEATHER SERVICE CLEVELAND, OH
400 PM EDT FRI AUG 26 2016

NOTE: "FAIR" INDICATES FEW OR NO CLOUDS BELOW 12,000 FEET WITH NO
SIGNIFICANT WEATHER AND/OR OBSTRUCTIONS TO VISIBILITY.

OHZ001>008-015>018-024>027-034-035-043-044-262100-
   NORTHWEST OHIO

CITY           SKY/WX    TMP DP  RH WIND       PRES   REMARKS
DEFIANCE       SUNNY     84  61  45 CALM      30.13F
FINDLAY        SUNNY     85  60  42 VRB6      30.12F
TOLEDO EXPRESS SUNNY     84  63  49 CALM      30.12F
TOLEDO EXEC    SUNNY     84  59  42 S6        30.13F
LIMA           SUNNY     83  67  58 CALM      30.14F
$$

OHZ009>014-019>023-028>033-038-089-262100-
   NORTHEAST OHIO

CITY           SKY/WX    TMP DP  RH WIND       PRES   REMARKS
CLE-HOPKINS    SUNNY     83  63  50 N7        30.16F
CLE-LAKEFRONT  SUNNY     79  63  57 NW5       30.14F
CUY CO. ARPT   SUNNY     82  63  51 N7        30.16F
LORAIN-ELYRIA  SUNNY     82  58  43 CALM      30.15F
ASHTABULA      SUNNY     80  64  58 VRB6      30.15F
AKRON-CANTON   MOSUNNY   87  54  32 N5        30.14F
WOOSTER        SUNNY     84  61  45 VRB5      30.15F
MANSFIELD      SUNNY     85  60  42 MISG      30.16F
YOUNGSTOWN     PTSUNNY   83  60  45 NW5       30.15S
$$

OHZ042-051>053-060>062-070>072-077>081-262100-
  SOUTHWEST OHIO

CITY           SKY/WX    TMP DP  RH WIND       PRES   REMARKS
CINC-COVINGTON PTSUNNY   89  72  56 CALM      30.08F HX  96
CINC-LUNKEN    PTSUNNY   90  75  61 S6        30.07F HX 100
HAMILTON       CLOUDY    92  72  51 NE6       30.08F HX  99
DAYTON         MOSUNNY   89  71  55 N8        30.12F HX  95
WRIGHT-PAT AFB MOSUNNY   88  71  57 NW5       30.10F HX  94
DAYTON GENERAL MOSUNNY   90  68  48 W6        30.09F HX  94
WILMINGTON     PTSUNNY   85  74  69 E5        30.11F HX  92
$$

OHZ036-037-039>041-045>050-054>059-063>069-073>076-082>088-262100-
  CENTRAL AND SOUTHEAST OHIO

CITY           SKY/WX    TMP DP  RH WIND       PRES   REMARKS
COLUMBUS       MOSUNNY   87  71  58 N9        30.10F HX  93
OSU AIRPORT    MOSUNNY   88  72  58 N7        30.11F HX  94
BOLTON FIELD   PTSUNNY   86  75  70 CALM      30.12F HX  95
RICKENBACK AFB SUNNY     88  72  57 W7        30.10F HX  95
NEWARK         MOSUNNY   89  71  55 NW6       30.11F HX  95
MARION         SUNNY     83  63  50 N7        30.15F
LANCASTER      MOSUNNY   88  72  58 CALM      30.11F HX  94
ZANESVILLE     MOSUNNY   89  70  53 N5        30.11F HX  94
NEW PHILLY     SUNNY     89  63  41 VRB7      30.12F HX  90
$$




USA.gov is the U.S. government's official web portal to all federal, state and local government web resources and services.